DAMPE

Last updated on Wed Oct 22 2025 00:03:34 GMT+0000 (Coordinated Universal Time)

1 41173U 15078A 25294.58016534 .00002511 00000+0 89230-4 0 9995 2 41173 97.4544 294.0634 0011633 194.5291 165.5616 15.29911595548053
UTC large
Height (km)
Speed (km/s)
/
Latitude / Longitude
Inclination (degrees)
Orbital Period (minutes)
Azimuth
Elevation
Range (km)
Doppler Factor

Next 0 passes for location: London (51.5072 / 0.1276)

Sorry there are no passes over London.